[[{"header":{"parameterUnit":"m.s-1","parameterCategory":2,"la1":30.2991,"la2":30.254,"lo1":-89.0895,"lo2":-89.0444,"dx":0.0017,"dy":0.0017,"nx":28,"ny":28,"refTime":"2022-11-05T15:00:00:Z","depth":"0","parameterNumber":2,"parameterNumberName":"U-component_of_CURRENTS"},"data":[0,0,0,0,0,0,0,0,0,0,0,0,0,0,0,0,0,0,0,0,0,0,0,0,0,0,0,0,0,0,0,0,0,0,0,0,0,0,0,0,0,0,0,0,0,0,0,0,0,0,0,0,0,0,0,0,0,0,0.2613,0.2613,0,0.2645,0.2645,0.2645,0.2671,0.2672,0.2673,0.2673,0.2694,0.2694,0.2694,0,0,0,0,0,0,0,0,0,0,0,0,0,0.2558,0.2558,0.2613,0.2613,0.2614,0.2645,0.2645,0.2645,0.2671,0.2672,0.2673,0.2674,0.2694,0.2694,0.2694,0,0,0,0,0,0,0,0,0,0,0,0,0,0.2581,0.2559,0.2612,0.2634,0.2637,0.2645,0.2645,0.2645,0.2671,0.2672,0.2673,0.2674,0.2694,0.2694,0.2694,0.2672,0,0,0.2693,0.2693,0,0,0,0,0,0,0,0,0.2579,0.2582,0.263,0.2633,0.2636,0.2659,0.2633,0.2655,0.2671,0.2653,0.2673,0.2674,0.2683,0.2684,0.2681,0.2673,0.2674,0.2693,0.2693,0.2693,0.2693,0,0,0,0,0,0,0,0.2578,0.2581,0.2621,0.2631,0.2635,0.2637,0.2641,0.2637,0.2658,0.2655,0.2658,0.2668,0.2684,0.2682,0.2682,0.2674,0.2693,0.2693,0.2693,0.2693,0.2669,0.2668,0,0,0,0,0,0,0.2583,0.2579,0.262,0.2622,0.2615,0.2638,0.2642,0.2647,0.2659,0.2663,0.2667,0.267,0.2681,0.2682,0.2683,0.2679,0.2693,0.2693,0.2693,0.2669,0.2669,0.2668,0,0,0,0,0,0,0.2581,0.2586,0.2619,0.2605,0.261,0.2638,0.2643,0.2647,0.2654,0.2669,0.2673,0.2672,0.2682,0.2683,0.2682,0.2679,0.2693,0.2693,0.267,0.2669,0.2668,0.2657,0,0,0,0,0,0,0.2579,0.2585,0.2582,0.2606,0.2612,0.2623,0.2643,0.2647,0.2661,0.2664,0.2674,0.2677,0.2683,0.2682,0.2682,0.2679,0.2692,0.2671,0.267,0.2669,0.2658,0.2656,0.2654,0,0,0,0,0,0.2577,0.2569,0.2582,0.2587,0.261,0.2623,0.2626,0.2646,0.266,0.2657,0.2666,0.2677,0.2676,0.2681,0.2681,0.2679,0.2671,0.267,0.2669,0.2659,0.2657,0.2654,0,0,0,0,0,0,0.2543,0.2572,0.2587,0.2588,0.2607,0.263,0.2627,0.2646,0.265,0.2652,0.2668,0.267,0.2669,0.2671,0.2677,0.2668,0.2676,0.2674,0.2668,0.2666,0.2664,0.2688,0.2692,0,0,0,0,0,0.2536,0.254,0.2569,0.2572,0.2577,0.2602,0.2609,0.2627,0.2639,0.2643,0.2653,0.2658,0.266,0.2662,0.2661,0.2653,0.2707,0.2651,0.2649,0.2648,0.2666,0.2725,0.2732,0.2664,0.2664,0.2664,0,0,0.2526,0.2542,0.2545,0.2565,0.2577,0.2584,0.2607,0.2617,0.2628,0.2642,0.2646,0.265,0.2656,0.265,0.265,0.2654,0.2699,0.2646,0.2645,0.2665,0.2725,0.2732,0.2738,0.2663,0.2663,0.2664,0,0,0.2507,0.2518,0.2515,0.2527,0.255,0.2567,0.2572,0.2595,0.2606,0.261,0.2625,0.2633,0.2628,0.264,0.2644,0.2629,0.2686,0.2621,0.2633,0.2689,0.2696,0.2703,0.2806,0.2822,0.2621,0.2621,0.2621,0,0.2494,0.2503,0.2516,0.2517,0.2534,0.256,0.2568,0.2574,0.2597,0.2615,0.2609,0.2631,0.2628,0.2646,0.2638,0.2627,0.2687,0.2642,0.269,0.2697,0.2704,0.2809,0.2826,0.262,0.262,0.262,0.262,0,0.2475,0.2486,0.2483,0.25,0.2511,0.2522,0.2544,0.2557,0.2575,0.2595,0.2617,0.2616,0.2644,0.2628,0.2627,0.2669,0.2706,0.2682,0.2702,0.2711,0.282,0.2839,0.2619,0.2619,0.262,0.262,0,0,0.2444,0.2469,0.247,0.2488,0.251,0.2523,0.2536,0.2571,0.2613,0.2605,0.2661,0.2636,0.266,0.2666,0.2668,0.27,0.2796,0.2712,0.2715,0.2828,0.297,0.3036,0.3064,0.2782,0.2785,0.2787,0.3037,0,0.2435,0.244,0.246,0.248,0.2488,0.2526,0.2549,0.258,0.2617,0.2671,0.2674,0.2718,0.2666,0.2701,0.2718,0.2786,0.2841,0.2734,0.2934,0.2942,0.3009,0.3085,0.2988,0.3206,0.3056,0.3059,0.3062,0,0.2411,0.2426,0.2441,0.2497,0.2506,0.2526,0.2601,0.2627,0.2697,0.2735,0.2772,0.2796,0.285,0.2803,0.2924,0.2862,0.2921,0.296,0.297,0.3051,0.3042,0.3166,0.3246,0.3143,0.3091,0.3089,0.3087,0,0.2386,0.2418,0.2438,0.245,0.2506,0.2537,0.2576,0.2646,0.2702,0.2798,0.2864,0.2912,0.2982,0.3026,0.3103,0.303,0.3263,0.3175,0.3295,0.3302,0.3271,0.3271,0.3285,0.3274,0.3274,0.3273,0.3272,0,0.2374,0.2395,0.2432,0.2444,0.2491,0.2533,0.2606,0.2665,0.2773,0.2857,0.29,0.2994,0.304,0.3162,0.3186,0.3341,0.3342,0.3344,0.3377,0.3267,0.3264,0.3213,0.316,0.3282,0.328,0.3278,0.3277,0,0.2355,0.2376,0.2404,0.246,0.2479,0.2515,0.2621,0.2699,0.2793,0.2917,0.2961,0.3108,0.3284,0.3363,0.3505,0.3492,0.3525,0.3653,0.3554,0.357,0.3532,0.3483,0.3463,0.3356,0.3816,0.3819,0.3822,0,0.2348,0.2355,0.24,0.2436,0.247,0.2528,0.2594,0.2696,0.2792,0.2981,0.3061,0.3274,0.3421,0.3692,0.3752,0.389,0.3696,0.3849,0.3663,0.3566,0.3536,0.3342,0.3235,0.3633,0.3634,0.3635,0.3635,0,0.2349,0.2363,0.2399,0.2447,0.2512,0.2561,0.2659,0.2724,0.2866,0.2986,0.3177,0.3313,0.361,0.3728,0.3934,0.3965,0.3665,0.387,0.377,0.342,0.3208,0.3108,0.3466,0.3642,0.3642,0.3641,0.3641,0.364,0.236,0.2381,0.2424,0.2474,0.2539,0.2583,0.2603,0.273,0.2846,0.3005,0.3195,0.3376,0.3604,0.3888,0.3908,0.3867,0.3783,0.3725,0.3694,0.3521,0.3339,0.3756,0.3955,0.3957,0.3957,0.3958,0.3959,0,0.2371,0.2404,0.2455,0.2496,0.2541,0.2568,0.265,0.2664,0.2761,0.2966,0.3135,0.3393,0.3549,0.3671,0.3766,0.3683,0.3437,0.3576,0.3229,0.3143,0.3537,0.3446,0.3541,0.3541,0.3542,0.3542,0.3542,0.3542,0.2384,0.2426,0.244,0.2479,0.2506,0.2502,0.2514,0.255,0.2655,0.2816,0.2968,0.3156,0.3409,0.3595,0.3555,0.3472,0.3167,0.309,0.3027,0.3265,0.3271,0.3277,0.3176,0.3213,0.3213,0.2465,0.246,0.2456]},{"header":{"parameterUnit":"m.s-1","parameterCategory":2,"la1":30.2991,"la2":30.254,"lo1":-89.0895,"lo2":-89.0444,"dx":0.0017,"dy":0.0017,"nx":28,"ny":28,"refTime":"2022-11-05T15:00:00:Z","depth":"0","parameterNumber":3,"parameterNumberName":"V-component_of_CURRENTS"},"data":[0,0,0,0,0,0,0,0,0,0,0,0,0,0,0,0,0,0,0,0,0,0,0,0,0,0,0,0,0,0,0,0,0,0,0,0,0,0,0,0,0,0,0,0,0,0,0,0,0,0,0,0,0,0,0,0,0,0,-0.0749,-0.075,0,-0.0823,-0.0824,-0.0825,-0.0873,-0.0872,-0.0872,-0.0872,-0.097,-0.0973,-0.0976,0,0,0,0,0,0,0,0,0,0,0,0,0,-0.0718,-0.0718,-0.0749,-0.075,-0.075,-0.0822,-0.0824,-0.0825,-0.0873,-0.0872,-0.0872,-0.0872,-0.097,-0.0973,-0.0976,0,0,0,0,0,0,0,0,0,0,0,0,0,-0.0759,-0.0718,-0.0749,-0.078,-0.0783,-0.0822,-0.0824,-0.0825,-0.0873,-0.0872,-0.0872,-0.0872,-0.0968,-0.0972,-0.0976,-0.1003,0,0,-0.0989,-0.099,0,0,0,0,0,0,0,0,-0.0756,-0.076,-0.0775,-0.0778,-0.0781,-0.0835,-0.0848,-0.0885,-0.0873,-0.0843,-0.0872,-0.0872,-0.0925,-0.0932,-0.0952,-0.1007,-0.1012,-0.0989,-0.0991,-0.0993,-0.0994,0,0,0,0,0,0,0,-0.0753,-0.0758,-0.0782,-0.0775,-0.0779,-0.0813,-0.0818,-0.0856,-0.0887,-0.0845,-0.0848,-0.085,-0.0927,-0.0948,-0.0954,-0.1013,-0.0989,-0.0992,-0.0995,-0.0996,-0.1096,-0.1096,0,0,0,0,0,0,-0.0733,-0.0755,-0.078,-0.0784,-0.0764,-0.0813,-0.0819,-0.0821,-0.0886,-0.0895,-0.085,-0.0852,-0.0941,-0.095,-0.0958,-0.0975,-0.0993,-0.0997,-0.0999,-0.1096,-0.1096,-0.1096,0,0,0,0,0,0,-0.0732,-0.0734,-0.0777,-0.0768,-0.0775,-0.0812,-0.0815,-0.0822,-0.0838,-0.0888,-0.0898,-0.0856,-0.0941,-0.0952,-0.0988,-0.098,-0.0999,-0.1002,-0.1096,-0.1096,-0.1096,-0.1022,0,0,0,0,0,0,-0.0731,-0.0734,-0.073,-0.0766,-0.0775,-0.079,-0.0815,-0.0824,-0.0837,-0.084,-0.0897,-0.0906,-0.0942,-0.0982,-0.0992,-0.0986,-0.1005,-0.1095,-0.1096,-0.1096,-0.1024,-0.102,-0.1016,0,0,0,0,0,-0.0729,-0.0724,-0.0729,-0.0732,-0.0767,-0.079,-0.0797,-0.0827,-0.0837,-0.0841,-0.0881,-0.0904,-0.0992,-0.0985,-0.0997,-0.0992,-0.1095,-0.1096,-0.1096,-0.1026,-0.102,-0.1016,0,0,0,0,0,0,-0.0712,-0.0729,-0.0735,-0.0736,-0.0754,-0.0796,-0.0802,-0.082,-0.0856,-0.0859,-0.0909,-0.0921,-0.0951,-0.0985,-0.0976,-0.1024,-0.1047,-0.105,-0.099,-0.0985,-0.0981,-0.0935,-0.1009,0,0,0,0,0,-0.0703,-0.0702,-0.0724,-0.0725,-0.073,-0.0764,-0.0776,-0.0793,-0.0827,-0.0843,-0.0882,-0.0926,-0.0965,-0.0983,-0.1025,-0.1049,-0.1056,-0.1056,-0.1052,-0.1048,-0.102,-0.1045,-0.104,-0.1098,-0.1098,-0.1098,0,0,-0.0697,-0.0706,-0.0705,-0.0721,-0.0739,-0.0735,-0.0772,-0.0784,-0.0781,-0.0848,-0.0864,-0.0914,-0.0969,-0.0998,-0.1014,-0.1023,-0.1032,-0.1048,-0.1044,-0.1018,-0.1045,-0.1039,-0.1034,-0.1099,-0.1099,-0.1099,0,0,-0.0675,-0.0689,-0.0675,-0.0682,-0.0696,-0.0716,-0.0713,-0.0747,-0.0763,-0.0787,-0.0833,-0.0872,-0.0935,-0.0967,-0.0992,-0.099,-0.1012,-0.1013,-0.0951,-0.0976,-0.0971,-0.0966,-0.0945,-0.0939,-0.1008,-0.1008,-0.1007,0,-0.0664,-0.0643,-0.0676,-0.0659,-0.065,-0.0699,-0.0672,-0.0701,-0.0743,-0.0742,-0.078,-0.0855,-0.0914,-0.0929,-0.0938,-0.0977,-0.0981,-0.0962,-0.0968,-0.0963,-0.096,-0.094,-0.0934,-0.1004,-0.1004,-0.1005,-0.1005,0,-0.0626,-0.0605,-0.0598,-0.0587,-0.059,-0.0578,-0.0605,-0.0613,-0.0642,-0.0667,-0.0693,-0.0776,-0.0812,-0.085,-0.0898,-0.0901,-0.0906,-0.096,-0.0971,-0.0949,-0.093,-0.0925,-0.0999,-0.1,-0.1001,-0.1002,0,0,-0.0597,-0.0572,-0.0565,-0.0525,-0.0541,-0.0527,-0.0527,-0.0522,-0.0491,-0.0567,-0.0537,-0.0639,-0.0681,-0.0712,-0.0781,-0.0813,-0.0806,-0.087,-0.0873,-0.083,-0.0823,-0.0761,-0.075,-0.0865,-0.0864,-0.0864,-0.081,0,-0.0547,-0.0474,-0.0492,-0.0422,-0.0374,-0.0409,-0.039,-0.0398,-0.0423,-0.0415,-0.0504,-0.052,-0.063,-0.0644,-0.0695,-0.0773,-0.0794,-0.0813,-0.0866,-0.0866,-0.08,-0.0743,-0.0724,-0.0669,-0.0806,-0.0805,-0.0805,0,-0.0492,-0.0438,-0.0354,-0.0285,-0.0271,-0.0248,-0.0195,-0.0187,-0.0206,-0.0224,-0.0267,-0.0346,-0.04,-0.0508,-0.0607,-0.0613,-0.0705,-0.0774,-0.0775,-0.0734,-0.0796,-0.0721,-0.0656,-0.0864,-0.0798,-0.0799,-0.0799,0,-0.0404,-0.0339,-0.0256,-0.0236,-0.0183,-0.0147,-0.0122,-0.0117,-0.0075,-0.0098,-0.0075,-0.0172,-0.0193,-0.0332,-0.0488,-0.055,-0.0577,-0.0687,-0.0708,-0.0703,-0.0701,-0.0697,-0.0825,-0.0752,-0.0752,-0.0752,-0.0752,0,-0.0326,-0.0253,-0.0201,-0.0142,-0.0031,-0.0037,0.0067,0.0073,0.0105,0.0176,0.0036,0.0078,-0.0155,-0.0218,-0.0396,-0.0491,-0.0504,-0.0656,-0.0679,-0.0673,-0.0667,-0.0861,-0.0978,-0.075,-0.075,-0.0751,-0.0751,0,-0.0233,-0.0212,-0.0091,-0.0008,0.002,0.0109,0.0201,0.0283,0.0283,0.0375,0.0371,0.0295,0.0227,0.0026,-0.0157,-0.0329,-0.0551,-0.0504,-0.0447,-0.0464,-0.0699,-0.0811,-0.0889,-0.0979,-0.0519,-0.0517,-0.0515,0,-0.017,-0.01,0.0026,0.0106,0.0149,0.0263,0.0349,0.0379,0.0468,0.052,0.0587,0.0542,0.0552,0.035,0.0052,-0.0178,-0.0428,-0.0348,-0.0484,-0.0664,-0.0809,-0.0895,-0.0975,-0.0451,-0.0449,-0.0447,-0.0446,0,-0.0023,0.001,0.0111,0.0261,0.0367,0.0488,0.0609,0.07,0.0743,0.0826,0.0941,0.0956,0.0774,0.0583,0.0261,0.0039,-0.0472,-0.0319,-0.0547,-0.0772,-0.0834,-0.0947,-0.0511,-0.0431,-0.0433,-0.0434,-0.0435,-0.0435,0.0094,0.0184,0.0295,0.0427,0.0553,0.0695,0.0798,0.0932,0.1083,0.1219,0.1236,0.1329,0.099,0.0576,0.0273,-0.0305,-0.034,-0.0532,-0.0648,-0.0715,-0.0818,-0.0303,-0.0233,-0.0233,-0.0233,-0.0233,-0.0234,0,0.0233,0.031,0.0453,0.0603,0.0742,0.0772,0.0956,0.1061,0.1248,0.144,0.1569,0.1519,0.1088,0.058,-0.0156,-0.0575,-0.0792,-0.0833,-0.1013,-0.1081,-0.0659,-0.0676,-0.0648,-0.0648,-0.0648,-0.0648,-0.0647,-0.0647,0.0316,0.045,0.0497,0.0719,0.0826,0.0988,0.1086,0.1264,0.143,0.1696,0.183,0.1906,0.1524,0.0199,-0.0766,-0.1014,-0.134,-0.1354,-0.1533,-0.1328,-0.1312,-0.1297,-0.1345,-0.1457,-0.1458,-0.1927,-0.1932,-0.1936]}],[{"header":{"parameterUnit":"m.s-1","parameterCategory":2,"la1":30.2991,"la2":30.254,"lo1":-89.0895,"lo2":-89.0444,"dx":0.0017,"dy":0.0017,"nx":28,"ny":28,"refTime":"2022-11-05T15:00:00:Z","depth":"2","parameterNumber":2,"parameterNumberName":"U-component_of_CURRENTS"},"data":[0,0,0,0,0,0,0,0,0,0,0,0,0,0,0,0,0,0,0,0,0,0,0,0,0,0,0,0,0,0,0,0,0,0,0,0,0,0,0,0,0,0,0,0,0,0,0,0,0,0,0,0,0,0,0,0,0,0,0.2255,0.2255,0,0.2352,0.2354,0.2355,0.2447,0.2447,0.2448,0.2448,0.2455,0.2455,0.2455,0,0,0,0,0,0,0,0,0,0,0,0,0,0.226,0.2259,0.2255,0.2255,0.2256,0.2352,0.2354,0.2356,0.2447,0.2447,0.2448,0.2449,0.2455,0.2455,0.2455,0,0,0,0,0,0,0,0,0,0,0,0,0,0.2303,0.2259,0.2255,0.2308,0.2314,0.2351,0.2354,0.2356,0.2446,0.2447,0.2448,0.2449,0.2455,0.2455,0.2455,0.2435,0,0,0.2453,0.2453,0,0,0,0,0,0,0,0,0.23,0.2303,0.23,0.2305,0.231,0.2383,0.2358,0.2376,0.2446,0.2403,0.2448,0.2449,0.2418,0.242,0.2447,0.2435,0.2435,0.2453,0.2453,0.2452,0.2452,0,0,0,0,0,0,0,0.2297,0.23,0.23,0.23,0.2307,0.2365,0.2372,0.2363,0.2407,0.2406,0.2412,0.2412,0.2421,0.2448,0.2448,0.2435,0.2453,0.2453,0.2452,0.2452,0.2476,0.2477,0,0,0,0,0,0,0.2265,0.2296,0.2297,0.2302,0.23,0.2364,0.2372,0.2364,0.241,0.2417,0.2411,0.2416,0.2448,0.2448,0.2448,0.2488,0.2452,0.2452,0.2452,0.2475,0.2476,0.2477,0,0,0,0,0,0,0.2265,0.2264,0.2292,0.2298,0.2304,0.2361,0.2353,0.2365,0.2415,0.2413,0.242,0.245,0.2449,0.2449,0.2463,0.2486,0.2452,0.2451,0.2474,0.2475,0.2476,0.2528,0,0,0,0,0,0,0.2264,0.2263,0.2274,0.2294,0.2302,0.2334,0.2352,0.2366,0.2409,0.2417,0.2447,0.2448,0.2449,0.2464,0.2463,0.2485,0.2451,0.2473,0.2474,0.2476,0.2525,0.2531,0.2536,0,0,0,0,0,0.2264,0.227,0.2274,0.2275,0.2306,0.2334,0.2346,0.2393,0.241,0.2441,0.2457,0.2449,0.2475,0.2464,0.2463,0.2485,0.2472,0.2474,0.2476,0.2523,0.253,0.2536,0,0,0,0,0,0,0.2277,0.2279,0.2285,0.2291,0.2316,0.2347,0.2375,0.2402,0.2444,0.2447,0.2456,0.2458,0.2482,0.2472,0.2461,0.2498,0.2473,0.2475,0.2509,0.2516,0.2521,0.2544,0.245,0,0,0,0,0,0.2279,0.2282,0.2296,0.23,0.231,0.2345,0.237,0.2395,0.2419,0.2442,0.2457,0.2469,0.2486,0.2492,0.2499,0.2511,0.2516,0.2526,0.2531,0.2536,0.2553,0.2583,0.2593,0.2484,0.2484,0.2484,0,0,0.2279,0.2283,0.2284,0.2304,0.2323,0.2339,0.2365,0.2394,0.2424,0.2427,0.2472,0.2485,0.2493,0.2519,0.2528,0.2516,0.2568,0.2538,0.2543,0.2558,0.2586,0.2597,0.2607,0.2485,0.2485,0.2485,0,0,0.2282,0.2285,0.2296,0.2302,0.2326,0.2351,0.236,0.2396,0.2438,0.247,0.2486,0.252,0.2532,0.2559,0.2569,0.2604,0.2597,0.26,0.2646,0.2675,0.2684,0.2693,0.2708,0.2718,0.2603,0.2603,0.2603,0,0.229,0.2289,0.2308,0.2309,0.2312,0.2352,0.2361,0.2406,0.2448,0.2481,0.2487,0.2539,0.2558,0.2596,0.2633,0.2619,0.2628,0.2621,0.2683,0.2692,0.27,0.2713,0.2723,0.2606,0.2605,0.2605,0.2605,0,0.2284,0.229,0.229,0.2301,0.2321,0.2326,0.2366,0.2407,0.2452,0.2499,0.2556,0.2583,0.2617,0.2634,0.2657,0.272,0.2706,0.2687,0.2668,0.2714,0.2725,0.2734,0.261,0.2609,0.2608,0.2607,0,0,0.2275,0.2289,0.2287,0.2288,0.2308,0.2319,0.2366,0.2431,0.2471,0.2528,0.2591,0.265,0.2678,0.2693,0.2711,0.276,0.2843,0.2766,0.2766,0.2784,0.2903,0.2873,0.2879,0.2836,0.2838,0.284,0.2887,0,0.2268,0.2272,0.2283,0.2286,0.229,0.2318,0.2367,0.2428,0.2486,0.256,0.2624,0.2697,0.2693,0.2734,0.2772,0.2826,0.2871,0.2832,0.2854,0.2855,0.2825,0.2891,0.2696,0.272,0.2896,0.2897,0.2898,0,0.2251,0.2262,0.2258,0.2287,0.2292,0.2308,0.2366,0.2416,0.2527,0.2582,0.2642,0.2706,0.2798,0.28,0.2874,0.2848,0.2895,0.293,0.2931,0.2895,0.2842,0.2704,0.273,0.2913,0.2912,0.2911,0.291,0,0.2222,0.224,0.2239,0.2228,0.227,0.2292,0.2345,0.2431,0.249,0.2619,0.2671,0.275,0.2833,0.2867,0.2956,0.2926,0.3048,0.2994,0.2999,0.2995,0.2832,0.2811,0.3072,0.3072,0.3072,0.3072,0.3071,0,0.2186,0.2186,0.2226,0.2206,0.2243,0.2283,0.2336,0.2403,0.2509,0.2591,0.2685,0.276,0.2871,0.2954,0.2978,0.3021,0.3049,0.3032,0.3018,0.2843,0.2824,0.2989,0.2979,0.3073,0.3073,0.3073,0.3072,0,0.2131,0.2151,0.2152,0.2197,0.2217,0.2248,0.2343,0.2388,0.2489,0.259,0.2656,0.2819,0.2924,0.299,0.3105,0.3069,0.3106,0.3126,0.2918,0.2881,0.3018,0.3009,0.3091,0.3091,0.309,0.309,0.309,0,0.2099,0.208,0.2123,0.2143,0.216,0.2219,0.2267,0.238,0.244,0.2613,0.2673,0.2849,0.2942,0.3058,0.3087,0.3102,0.3148,0.2931,0.2842,0.3048,0.3026,0.3018,0.3011,0.2634,0.2631,0.2627,0.2625,0,0.2021,0.2031,0.2045,0.2082,0.2123,0.217,0.226,0.2295,0.2437,0.2508,0.2643,0.2742,0.2916,0.2894,0.2971,0.2944,0.2896,0.2866,0.3146,0.267,0.2624,0.2601,0.2607,0.2596,0.2599,0.2601,0.2602,0.2604,0.1969,0.1973,0.1984,0.2012,0.2068,0.21,0.2105,0.2199,0.226,0.2351,0.2521,0.2582,0.2701,0.2708,0.2652,0.2625,0.2802,0.2669,0.2676,0.2687,0.2635,0.2593,0.2548,0.2551,0.2553,0.2555,0.2557,0,0.1875,0.189,0.1913,0.1935,0.1943,0.2013,0.2073,0.2053,0.2068,0.2224,0.2302,0.2186,0.2226,0.2321,0.2256,0.2276,0.2217,0.2171,0.2072,0.2106,0.2135,0.2051,0.1811,0.1808,0.1805,0.1802,0,0,0.1834,0.1816,0.1821,0.1788,0.1812,0.1786,0.1796,0.1795,0.1873,0.1871,0.1918,0.2123,0.2279,0.1994,0.199,0.1892,0.1969,0.1824,0.2439,0.236,0.2383,0.246,0.2376,0,0,0,0,0]},{"header":{"parameterUnit":"m.s-1","parameterCategory":2,"la1":30.2991,"la2":30.254,"lo1":-89.0895,"lo2":-89.0444,"dx":0.0017,"dy":0.0017,"nx":28,"ny":28,"refTime":"2022-11-05T15:00:00:Z","depth":"2","parameterNumber":3,"parameterNumberName":"V-component_of_CURRENTS"},"data":[0,0,0,0,0,0,0,0,0,0,0,0,0,0,0,0,0,0,0,0,0,0,0,0,0,0,0,0,0,0,0,0,0,0,0,0,0,0,0,0,0,0,0,0,0,0,0,0,0,0,0,0,0,0,0,0,0,0,0.0167,0.0166,0,0.0029,0.0027,0.0025,-0.0085,-0.0085,-0.0086,-0.0086,-0.0218,-0.0221,-0.0224,0,0,0,0,0,0,0,0,0,0,0,0,0,0.0241,0.024,0.0168,0.0166,0.0165,0.003,0.0027,0.0025,-0.0085,-0.0085,-0.0086,-0.0086,-0.0217,-0.0221,-0.0224,0,0,0,0,0,0,0,0,0,0,0,0,0,0.0161,0.024,0.0168,0.0099,0.0092,0.003,0.0027,0.0024,-0.0084,-0.0085,-0.0086,-0.0087,-0.0216,-0.022,-0.0225,-0.0236,0,0,-0.0238,-0.024,0,0,0,0,0,0,0,0,0.0166,0.0158,0.011,0.0103,0.0095,-0.0006,0.0005,-0.0061,-0.0084,-0.0024,-0.0086,-0.0087,-0.0142,-0.0153,-0.0186,-0.0243,-0.0248,-0.0239,-0.0242,-0.0244,-0.0245,0,0,0,0,0,0,0,0.0171,0.0162,0.0107,0.0109,0.01,0.0042,0.003,-0.0009,-0.0081,-0.0029,-0.0036,-0.0042,-0.0147,-0.0181,-0.0189,-0.025,-0.0239,-0.0243,-0.0246,-0.0247,-0.0306,-0.0305,0,0,0,0,0,0,0.0207,0.0168,0.0111,0.0103,0.0136,0.0043,0.0029,0.0022,-0.0081,-0.0096,-0.0041,-0.0046,-0.0173,-0.0184,-0.0194,-0.0199,-0.0244,-0.0248,-0.025,-0.0307,-0.0306,-0.0305,0,0,0,0,0,0,0.0209,0.0203,0.0117,0.0137,0.0123,0.0044,0.0036,0.002,-0.0014,-0.0089,-0.0105,-0.0058,-0.0174,-0.0188,-0.0227,-0.0205,-0.025,-0.0254,-0.0309,-0.0307,-0.0305,-0.0217,0,0,0,0,0,0,0.0211,0.0204,0.0204,0.014,0.0123,0.0085,0.0037,0.0018,-0.0013,-0.0022,-0.0108,-0.0122,-0.0176,-0.0219,-0.0231,-0.0212,-0.0257,-0.031,-0.0308,-0.0306,-0.0221,-0.0212,-0.0205,0,0,0,0,0,0.0214,0.0218,0.0204,0.0197,0.0128,0.0086,0.0072,0.0008,-0.0013,-0.0027,-0.0081,-0.0119,-0.0214,-0.0223,-0.0237,-0.0218,-0.0311,-0.0309,-0.0306,-0.0225,-0.0214,-0.0205,0,0,0,0,0,0,0.0248,0.0206,0.019,0.018,0.0143,0.007,0.0054,0.0018,-0.0038,-0.0042,-0.0115,-0.0133,-0.0155,-0.0196,-0.0203,-0.0226,-0.0264,-0.0264,-0.0197,-0.0188,-0.018,-0.0166,-0.0261,0,0,0,0,0,0.0261,0.0253,0.0206,0.0201,0.0187,0.0126,0.01,0.0064,0.0012,-0.0015,-0.0068,-0.0117,-0.0155,-0.0179,-0.022,-0.0237,-0.0274,-0.023,-0.0222,-0.0214,-0.0211,-0.0246,-0.0241,-0.0296,-0.0296,-0.0296,0,0,0.0276,0.0252,0.0248,0.0208,0.0173,0.0158,0.0106,0.008,0.0066,-0.0016,-0.0049,-0.0092,-0.0153,-0.0174,-0.0187,-0.0207,-0.0216,-0.0211,-0.0205,-0.0206,-0.0243,-0.0237,-0.0233,-0.0295,-0.0295,-0.0295,0,0,0.0301,0.0282,0.0281,0.026,0.0224,0.0187,0.0188,0.013,0.0099,0.0069,0.0014,-0.0015,-0.0079,-0.0118,-0.0145,-0.0113,-0.017,-0.0119,-0.0071,-0.0104,-0.01,-0.0097,-0.0128,-0.0128,-0.0116,-0.0116,-0.0115,0,0.0321,0.0313,0.0275,0.0272,0.0262,0.0209,0.021,0.0175,0.0112,0.01,0.0074,-0.0001,-0.0052,-0.0076,-0.0069,-0.0094,-0.0124,-0.0105,-0.0094,-0.0091,-0.009,-0.0123,-0.0124,-0.0111,-0.0111,-0.0112,-0.0112,0,0.0343,0.0339,0.0341,0.0322,0.0306,0.0301,0.0262,0.0247,0.0216,0.0179,0.0154,0.0086,0.0041,0.0029,-0.0017,-0.0022,-0.005,-0.0078,-0.0119,-0.0079,-0.0116,-0.0119,-0.0104,-0.0106,-0.0107,-0.0109,0,0,0.038,0.036,0.0361,0.0364,0.0335,0.0325,0.0323,0.0297,0.0301,0.025,0.0245,0.0184,0.0152,0.012,0.007,0.004,0.0025,-0.001,-0.0013,-0.004,-0.0048,-0.0087,-0.0095,-0.0004,-0.0004,-0.0004,-0.0076,0,0.0407,0.0415,0.0396,0.0412,0.0414,0.0387,0.0387,0.0366,0.0339,0.0324,0.0268,0.0241,0.0186,0.0171,0.0134,0.0048,0.0019,0.0047,-0.0084,-0.0087,-0.0127,-0.0099,-0.007,-0.0133,-0.0079,-0.008,-0.008,0,0.0431,0.0433,0.0452,0.0457,0.0458,0.0464,0.0468,0.0463,0.0437,0.0418,0.039,0.0337,0.0287,0.0237,0.0121,0.014,0.0058,-0.0008,-0.0013,-0.0084,-0.0133,-0.0167,-0.0142,-0.0087,-0.0086,-0.0086,-0.0085,0,0.0466,0.0473,0.049,0.0493,0.0491,0.0505,0.0507,0.0495,0.0508,0.0482,0.0487,0.0412,0.0383,0.0273,0.0134,0.0127,0.0003,-0.0027,-0.0136,-0.014,-0.016,-0.0165,-0.0102,-0.0101,-0.0101,-0.0101,-0.0101,0,0.0497,0.0512,0.0512,0.0525,0.056,0.0548,0.0587,0.0581,0.0589,0.0622,0.0541,0.0549,0.0391,0.0299,0.0163,0.0003,0.0023,-0.0124,-0.016,-0.0127,-0.0129,-0.0127,-0.0129,-0.0104,-0.0103,-0.0103,-0.0102,0,0.0524,0.0526,0.0549,0.0563,0.0577,0.0602,0.0648,0.0683,0.0677,0.0721,0.0719,0.065,0.0532,0.0359,0.018,0.0049,-0.0107,-0.0169,-0.0121,-0.015,-0.0235,-0.0232,-0.0294,-0.0296,-0.0298,-0.0299,-0.03,0,0.0534,0.0547,0.0579,0.0612,0.0623,0.0667,0.071,0.0727,0.0777,0.0792,0.0825,0.0727,0.0674,0.0386,0.0137,-0.011,-0.0129,-0.0247,-0.026,-0.0226,-0.0254,-0.0248,-0.0243,-0.0247,-0.0247,-0.0248,-0.0248,0,0.0551,0.0561,0.0587,0.0656,0.0709,0.0771,0.0837,0.089,0.0928,0.0958,0.0987,0.0943,0.068,0.0434,0.0089,-0.0071,-0.0209,-0.0266,-0.0241,-0.0205,-0.0188,-0.0214,-0.0208,-0.0253,-0.0252,-0.0252,-0.0252,-0.0251,0.0563,0.059,0.0635,0.0707,0.0776,0.0874,0.0943,0.1016,0.1098,0.1159,0.1113,0.1059,0.0775,0.0339,0.0043,-0.0257,-0.0245,-0.0342,-0.0337,-0.0332,-0.0317,-0.0304,-0.0387,-0.0388,-0.0388,-0.0388,-0.0388,0,0.0579,0.0624,0.0689,0.0782,0.0873,0.0907,0.1033,0.1106,0.1212,0.1249,0.1258,0.1002,0.0711,0.0395,-0.0059,-0.0341,-0.0342,-0.0415,-0.0353,-0.0347,-0.0342,-0.0324,-0.0399,-0.0399,-0.04,-0.0401,0,0,0.059,0.066,0.0705,0.0857,0.0933,0.1066,0.1149,0.1244,0.1302,0.133,0.1303,0.1215,0.0821,0.0495,0.0112,-0.0142,-0.0174,-0.0186,-0.0149,-0.0025,-0.0016,-0.0274,-0.0237,0,0,0,0,0]}],[{"header":{"parameterUnit":"m.s-1","parameterCategory":2,"la1":30.2991,"la2":30.254,"lo1":-89.0895,"lo2":-89.0444,"dx":0.0017,"dy":0.0017,"nx":28,"ny":28,"refTime":"2022-11-05T15:00:00:Z","depth":"4","parameterNumber":2,"parameterNumberName":"U-component_of_CURRENTS"},"data":[0,0,0,0,0,0,0,0,0,0,0,0,0,0,0,0,0,0,0,0,0,0,0,0,0,0,0,0,0,0,0,0,0,0,0,0,0,0,0,0,0,0,0,0,0,0,0,0,0,0,0,0,0,0,0,0,0,0,0.1084,0.1085,0,0.1102,0.1102,0.1102,0.1127,0.1127,0.1128,0.1129,0.122,0.1221,0.1223,0,0,0,0,0,0,0,0,0,0,0,0,0,0.1005,0.1006,0.1084,0.1085,0.1085,0.1102,0.1102,0.1102,0.1127,0.1127,0.1128,0.1129,0.1219,0.1221,0.1223,0,0,0,0,0,0,0,0,0,0,0,0,0,0.1029,0.1007,0.1084,0.1103,0.1105,0.1102,0.1102,0.1102,0.1126,0.1128,0.1129,0.113,0.1218,0.1221,0.1223,0.1215,0,0,0.1231,0.1232,0,0,0,0,0,0,0,0,0.1028,0.1031,0.1099,0.1101,0.1104,0.1117,0.1108,0.1145,0.1126,0.1114,0.1129,0.113,0.1194,0.1198,0.1192,0.1219,0.1223,0.1231,0.1233,0.1234,0.1235,0,0,0,0,0,0,0,0.1026,0.103,0.1087,0.11,0.1103,0.1088,0.1093,0.1114,0.1145,0.1115,0.1118,0.1126,0.1195,0.119,0.1195,0.1224,0.1231,0.1233,0.1235,0.1236,0.1286,0.1286,0,0,0,0,0,0,0.1035,0.1029,0.1086,0.1088,0.1073,0.1089,0.1094,0.1108,0.1143,0.115,0.1125,0.1127,0.1185,0.1192,0.1198,0.127,0.1234,0.1236,0.1238,0.1286,0.1286,0.1285,0,0,0,0,0,0,0.1033,0.104,0.1086,0.1062,0.1067,0.109,0.1105,0.1108,0.1133,0.1151,0.1159,0.1151,0.1186,0.1195,0.1246,0.1271,0.1237,0.124,0.1286,0.1286,0.1286,0.1363,0,0,0,0,0,0,0.103,0.1039,0.1053,0.1063,0.1069,0.1102,0.1104,0.1108,0.1137,0.114,0.1176,0.1183,0.1188,0.1242,0.1248,0.1274,0.1241,0.1286,0.1286,0.1286,0.136,0.1365,0.1369,0,0,0,0,0,0.1028,0.1039,0.1053,0.106,0.1087,0.1103,0.1105,0.1121,0.1137,0.1148,0.1179,0.1184,0.1243,0.1245,0.1252,0.1279,0.1286,0.1286,0.1286,0.1358,0.1364,0.1369,0,0,0,0,0,0,0.101,0.1043,0.1059,0.1081,0.1101,0.1109,0.1124,0.1137,0.1166,0.1185,0.1199,0.1208,0.1262,0.1249,0.1251,0.1284,0.1258,0.1259,0.1311,0.1316,0.1321,0.1342,0.1244,0,0,0,0,0,0.1014,0.1036,0.1062,0.1083,0.1098,0.1118,0.1129,0.1146,0.1172,0.1186,0.1212,0.1232,0.1257,0.1274,0.1292,0.1318,0.1331,0.1329,0.1334,0.1338,0.1356,0.1394,0.1405,0.1284,0.1284,0.1284,0,0,0.1013,0.1036,0.1048,0.1081,0.1102,0.1129,0.1128,0.1161,0.1188,0.1193,0.1246,0.1265,0.1269,0.1304,0.1323,0.1304,0.1377,0.1337,0.1342,0.1357,0.1395,0.1407,0.1418,0.1284,0.1284,0.1284,0,0,0.1017,0.1049,0.1067,0.1094,0.1137,0.115,0.1169,0.1199,0.1221,0.1269,0.1279,0.1321,0.1347,0.136,0.1368,0.1404,0.1409,0.1391,0.143,0.1467,0.1479,0.1489,0.1526,0.1538,0.1382,0.1382,0.1382,0,0.1017,0.1052,0.1074,0.1106,0.1138,0.1168,0.1202,0.1222,0.1266,0.1295,0.13,0.1366,0.1377,0.1424,0.143,0.1422,0.1436,0.1418,0.1478,0.1488,0.1497,0.1532,0.1546,0.1386,0.1386,0.1385,0.1385,0,0.1034,0.1075,0.1094,0.1149,0.1179,0.1219,0.1257,0.1293,0.1331,0.1357,0.1427,0.1446,0.1486,0.1481,0.1474,0.1531,0.152,0.1493,0.1476,0.1515,0.1548,0.1561,0.1391,0.139,0.1389,0.1388,0,0,0.1007,0.1089,0.1101,0.1144,0.1215,0.1241,0.1297,0.1354,0.1407,0.1449,0.1513,0.1554,0.1577,0.1585,0.1579,0.16,0.168,0.1573,0.1573,0.1631,0.1767,0.1674,0.1678,0.1665,0.1667,0.1669,0.1767,0,0.1023,0.1086,0.1126,0.1202,0.1245,0.1301,0.1351,0.141,0.1464,0.1528,0.1564,0.1628,0.161,0.1643,0.1666,0.1684,0.1715,0.1656,0.1702,0.1704,0.1634,0.169,0.1677,0.1777,0.1779,0.1782,0.1783,0,0.103,0.1078,0.1149,0.1248,0.1274,0.1323,0.1426,0.1478,0.1567,0.1611,0.1682,0.1714,0.1781,0.1744,0.1823,0.1786,0.1791,0.1791,0.1794,0.1692,0.1634,0.1724,0.1806,0.1804,0.1802,0.1801,0.1799,0,0.1003,0.1098,0.1159,0.1195,0.1301,0.1352,0.1415,0.1511,0.1572,0.1678,0.1736,0.1814,0.1868,0.1895,0.1916,0.188,0.1984,0.1932,0.1855,0.1848,0.1871,0.1859,0.1986,0.1986,0.1986,0.1986,0.1985,0,0.1004,0.1058,0.1158,0.1196,0.1282,0.136,0.1458,0.1529,0.1638,0.1709,0.1788,0.1847,0.1908,0.1967,0.1963,0.1963,0.2036,0.1887,0.1874,0.1898,0.1888,0.188,0.1867,0.1989,0.1988,0.1988,0.1987,0,0.097,0.1035,0.1114,0.1232,0.1275,0.1341,0.1481,0.1539,0.1657,0.1751,0.1794,0.1908,0.1987,0.2036,0.2089,0.2023,0.203,0.2005,0.2059,0.2043,0.1856,0.1846,0.1933,0.193,0.1928,0.1927,0.1925,0,0.0955,0.0994,0.1127,0.1174,0.1235,0.134,0.14,0.1535,0.1593,0.1767,0.1795,0.1928,0.1982,0.2003,0.2053,0.2072,0.203,0.2021,0.1909,0.1876,0.1855,0.1847,0.1839,0.1922,0.1922,0.1921,0.1921,0,0.0926,0.0982,0.1041,0.1138,0.1214,0.1291,0.1391,0.143,0.157,0.1691,0.1765,0.1815,0.1899,0.1942,0.1981,0.1976,0.2021,0.1999,0.2001,0.1896,0.1864,0.1843,0.1838,0.1914,0.1915,0.1915,0.1916,0,0.0897,0.0924,0.1002,0.1085,0.1169,0.1212,0.1281,0.135,0.1432,0.1613,0.1635,0.1767,0.1881,0.1895,0.1929,0.1932,0.1882,0.1792,0.1804,0.1812,0.1725,0.1664,0.1662,0,0,0,0,0,0.0858,0.0876,0.094,0.1014,0.1091,0.1142,0.1252,0.1316,0.145,0.1464,0.1549,0.162,0.1687,0.1761,0.1738,0.1868,0.1883,0.1831,0.1784,0.1876,0.1883,0.1789,0,0,0,0,0,0,0.0825,0.0873,0.0905,0.0932,0.0966,0.1035,0.1099,0.1193,0.1213,0.1358,0.1409,0.1518,0.1613,0.1684,0.1705,0.1726,0.1662,0.1919,0.1915,0.1871,0.1878,0.1885,0.1791,0,0,0,0,0]},{"header":{"parameterUnit":"m.s-1","parameterCategory":2,"la1":30.2991,"la2":30.254,"lo1":-89.0895,"lo2":-89.0444,"dx":0.0017,"dy":0.0017,"nx":28,"ny":28,"refTime":"2022-11-05T15:00:00:Z","depth":"4","parameterNumber":3,"parameterNumberName":"V-component_of_CURRENTS"},"data":[0,0,0,0,0,0,0,0,0,0,0,0,0,0,0,0,0,0,0,0,0,0,0,0,0,0,0,0,0,0,0,0,0,0,0,0,0,0,0,0,0,0,0,0,0,0,0,0,0,0,0,0,0,0,0,0,0,0,0.0264,0.0264,0,0.0241,0.024,0.024,0.0236,0.0236,0.0236,0.0236,0.0174,0.0173,0.0171,0,0,0,0,0,0,0,0,0,0,0,0,0,0.0284,0.0284,0.0264,0.0264,0.0263,0.0241,0.024,0.024,0.0236,0.0236,0.0236,0.0237,0.0175,0.0173,0.0171,0,0,0,0,0,0,0,0,0,0,0,0,0,0.0271,0.0284,0.0264,0.0258,0.0257,0.0241,0.024,0.024,0.0236,0.0236,0.0236,0.0237,0.0176,0.0173,0.0171,0.0152,0,0,0.0163,0.0161,0,0,0,0,0,0,0,0,0.0272,0.027,0.0259,0.0258,0.0257,0.024,0.0225,0.0208,0.0236,0.0245,0.0236,0.0237,0.0192,0.0188,0.0186,0.0149,0.0146,0.0162,0.0161,0.016,0.0159,0,0,0,0,0,0,0,0.0273,0.0271,0.0256,0.0259,0.0257,0.0249,0.0247,0.0222,0.0218,0.0244,0.0244,0.0239,0.0191,0.0188,0.0184,0.0145,0.0162,0.016,0.0159,0.0157,0.0101,0.0101,0,0,0,0,0,0,0.0274,0.0272,0.0257,0.0255,0.0264,0.0248,0.0247,0.0247,0.0219,0.0215,0.0239,0.0239,0.0193,0.0187,0.0182,0.0168,0.016,0.0157,0.0156,0.01,0.0101,0.0101,0,0,0,0,0,0,0.0275,0.0273,0.0258,0.0262,0.0259,0.0248,0.0248,0.0246,0.0248,0.0216,0.0211,0.0243,0.0192,0.0185,0.0166,0.0165,0.0156,0.0154,0.01,0.01,0.0101,0.0132,0,0,0,0,0,0,0.0276,0.0274,0.0278,0.0262,0.0259,0.0254,0.0247,0.0245,0.0244,0.0244,0.0217,0.0212,0.0192,0.017,0.0163,0.0161,0.0152,0.01,0.01,0.0101,0.0131,0.0134,0.0135,0,0,0,0,0,0.0276,0.0283,0.0279,0.0277,0.0264,0.0254,0.0252,0.0245,0.0244,0.0247,0.023,0.0213,0.0166,0.0168,0.016,0.0157,0.01,0.01,0.0101,0.013,0.0133,0.0135,0,0,0,0,0,0,0.0293,0.0282,0.0278,0.028,0.027,0.0253,0.0254,0.0249,0.0239,0.0239,0.0212,0.0205,0.0184,0.0168,0.0171,0.0141,0.0131,0.0129,0.0156,0.0158,0.016,0.0165,0.0149,0,0,0,0,0,0.0299,0.0302,0.0286,0.0289,0.0283,0.027,0.0266,0.0262,0.0248,0.0244,0.0224,0.0202,0.0177,0.0168,0.0142,0.0128,0.0099,0.0121,0.0123,0.0125,0.0124,0.008,0.0077,0.0101,0.0101,0.0101,0,0,0.0305,0.03,0.0301,0.0293,0.0283,0.0281,0.0269,0.0266,0.0265,0.0237,0.023,0.0204,0.0173,0.0156,0.0146,0.0144,0.0104,0.0125,0.0127,0.0125,0.0079,0.0077,0.0075,0.0101,0.0101,0.0101,0,0,0.0317,0.0314,0.0319,0.0313,0.0302,0.0294,0.0295,0.0281,0.0276,0.0265,0.0241,0.0217,0.0188,0.0163,0.0147,0.0145,0.0112,0.0141,0.016,0.0117,0.0114,0.0112,0.0075,0.0069,0.0148,0.0148,0.0148,0,0.0324,0.0329,0.0319,0.0321,0.0318,0.0302,0.0306,0.0298,0.028,0.0273,0.0268,0.0215,0.0189,0.016,0.0162,0.0149,0.0123,0.0154,0.0119,0.0116,0.0113,0.0076,0.0069,0.0149,0.0149,0.0149,0.0149,0,0.0338,0.0343,0.0344,0.0343,0.0341,0.0341,0.0326,0.0321,0.0313,0.0301,0.0272,0.0235,0.0205,0.0192,0.0178,0.0145,0.0133,0.0122,0.0113,0.0113,0.0074,0.0066,0.0152,0.0151,0.0151,0.015,0,0,0.0347,0.0354,0.0353,0.036,0.0354,0.0353,0.0349,0.0339,0.034,0.0313,0.0302,0.0256,0.0237,0.0218,0.0189,0.0156,0.0112,0.0138,0.0135,0.0103,0.0021,0.0009,-0.0001,0.0096,0.0095,0.0094,0.0004,0,0.0359,0.0374,0.0373,0.0386,0.0391,0.0379,0.038,0.037,0.0357,0.0342,0.0295,0.0275,0.0247,0.0237,0.0195,0.0132,0.0093,0.0138,0.0026,0.0022,0.0012,-0.0011,0.009,-0.0002,-0.0004,-0.0005,-0.0006,0,0.0367,0.0379,0.0396,0.0411,0.0412,0.042,0.042,0.0422,0.0395,0.0382,0.0349,0.0315,0.026,0.0239,0.0125,0.0158,0.0093,0.0042,0.0037,0.0008,-0.0005,-0.0003,-0.0021,-0.002,-0.0019,-0.0018,-0.0017,0,0.0376,0.0393,0.0411,0.0415,0.0428,0.0435,0.0445,0.0434,0.0444,0.0412,0.0409,0.0335,0.0302,0.021,0.0108,0.0116,-0.0021,-0.0026,-0.0103,-0.0104,-0.0079,-0.0075,-0.0114,-0.0114,-0.0114,-0.0114,-0.0114,0,0.0384,0.0398,0.042,0.043,0.046,0.046,0.0488,0.0483,0.0482,0.0493,0.0437,0.0417,0.0294,0.0206,0.0109,-0.0023,-0.0025,-0.0109,-0.0133,-0.0062,-0.0056,-0.0085,-0.008,-0.0117,-0.0116,-0.0116,-0.0115,0,0.0384,0.0398,0.0424,0.045,0.0466,0.0488,0.0532,0.055,0.0544,0.0553,0.0547,0.0472,0.0355,0.0224,0.0066,-0.0017,-0.0142,-0.0189,-0.0104,-0.012,-0.0196,-0.0189,-0.0285,-0.0286,-0.0287,-0.0288,-0.0289,0,0.0382,0.0396,0.0443,0.047,0.0487,0.0527,0.0558,0.0579,0.0602,0.0586,0.0587,0.0488,0.0418,0.019,0.0045,-0.0156,-0.0181,-0.0247,-0.0226,-0.0203,-0.0216,-0.0207,-0.0198,-0.029,-0.0291,-0.0291,-0.0291,0,0.0379,0.0399,0.0424,0.0486,0.053,0.0579,0.0626,0.0649,0.0667,0.0661,0.0619,0.0504,0.0364,0.019,0.0027,-0.0113,-0.0205,-0.0259,-0.0258,-0.0238,-0.0211,-0.0221,-0.0211,-0.0295,-0.0295,-0.0294,-0.0294,0,0.0377,0.0398,0.0442,0.0497,0.0559,0.0617,0.064,0.0665,0.0689,0.0676,0.0656,0.0514,0.043,0.021,0.0063,-0.0083,-0.0116,-0.0155,-0.0159,-0.0157,-0.0094,-0.004,-0.01,0,0,0,0,0,0.0371,0.0403,0.0451,0.0517,0.0581,0.0623,0.0679,0.0697,0.0717,0.0696,0.0681,0.0555,0.0335,0.0238,0.0091,0.0031,-0.015,-0.0148,-0.0199,-0.0316,-0.0312,-0.0261,0,0,0,0,0,0,0.0368,0.0412,0.0446,0.0529,0.058,0.0654,0.0696,0.0708,0.0697,0.069,0.0577,0.0519,0.0305,0.0422,0.009,0.0043,-0.0009,-0.0251,-0.0255,-0.0319,-0.0315,-0.0311,-0.0258,0,0,0,0,0]}]]